| time (UTC) | temp C | wind direction | speed KPH | gust KPH | rain 1hr cm | rain 24hr cm | rain mn cm | humidity % | barometer mb |
| 20260905183604 | 15 | 254 | 0.0 | 0.0 | 0.00 | 0.33 | 0.03 | 61 | 1017.2 |
| 20260905183104 | 15 | 254 | 0.0 | 0.0 | 0.00 | 0.33 | 0.03 | 61 | 1017.1 |
| 20260905182605 | 14 | 256 | 0.0 | 4.8 | 0.00 | 0.33 | 0.03 | 64 | 1017.2 |
| 20260905182104 | 15 | 196 | 0.0 | 3.2 | 0.00 | 0.33 | 0.03 | 63 | 1017.2 |
| 20260905181605 | 14 | 207 | 0.0 | 0.0 | 0.00 | 0.33 | 0.03 | 64 | 1017.4 |
| 20260905181104 | 14 | 209 | 0.0 | 3.2 | 0.00 | 0.33 | 0.03 | 63 | 1017.4 |
| 20260905180604 | 14 | 211 | 1.6 | 4.8 | 0.00 | 0.33 | 0.03 | 62 | 1017.5 |
| 20260905180104 | 14 | 143 | 0.0 | 3.2 | 0.00 | 0.33 | 0.03 | 64 | 1017.6 |
| 20260905175605 | 13 | 144 | 0.0 | 0.0 | 0.00 | 0.33 | 0.03 | 65 | 1017.6 |
| 20260905175104 | 13 | 140 | 0.0 | 0.0 | 0.00 | 0.33 | 0.03 | 66 | 1017.7 |
| 20260905174604 | 13 | 128 | 0.0 | 3.2 | 0.00 | 0.33 | 0.03 | 67 | 1017.7 |
| 20260905174104 | 13 | 160 | 0.0 | 1.6 | 0.00 | 0.33 | 0.03 | 69 | 1017.8 |
| 20260905173604 | 12 | 179 | 0.0 | 3.2 | 0.00 | 0.33 | 0.03 | 69 | 1017.8 |
| 20260905173105 | 12 | 177 | 1.6 | 4.8 | 0.00 | 0.33 | 0.03 | 70 | 1017.8 |
| 20260905172604 | 12 | 135 | 1.6 | 4.8 | 0.00 | 0.33 | 0.03 | 70 | 1017.8 |
| 20260905171604 | 12 | 164 | 0.0 | 0.0 | 0.00 | 0.33 | 0.03 | 74 | 1017.9 |
| 20260905170604 | 11 | 164 | 0.0 | 1.6 | 0.00 | 0.33 | 0.03 | 78 | 1017.9 |
| 20260905170104 | 11 | 165 | 0.0 | 0.0 | 0.00 | 0.33 | 0.03 | 80 | 1017.9 |
| 20260905165604 | 10 | 165 | 0.0 | 0.0 | 0.00 | 0.33 | 0.03 | 82 | 1017.8 |
| 20260905165104 | 10 | 165 | 0.0 | 1.6 | 0.00 | 0.33 | 0.03 | 84 | 1017.8 |
| 20260905164604 | 9 | 204 | 0.0 | 1.6 | 0.00 | 0.33 | 0.03 | 86 | 1017.8 |
| 20260905163604 | 8 | 207 | 0.0 | 0.0 | 0.00 | 0.33 | 0.03 | 88 | 1017.9 |
| 20260905163104 | 8 | 207 | 0.0 | 0.0 | 0.00 | 0.33 | 0.03 | 89 | 1018.0 |
| 20260905162605 | 8 | 207 | 0.0 | 0.0 | 0.00 | 0.33 | 0.03 | 90 | 1018.0 |
| 20260905161604 | 7 | 207 | 0.0 | 0.0 | 0.00 | 0.33 | 0.03 | 91 | 1017.9 |
| 20260905160104 | 7 | 213 | 0.0 | 0.0 | 0.00 | 0.33 | 0.03 | 91 | 1018.1 |
| 20260905155605 | 7 | 213 | 0.0 | 0.0 | 0.00 | 0.33 | 0.03 | 91 | 1018.0 |
| 20260905155103 | 7 | 215 | 0.0 | 0.0 | 0.00 | 0.33 | 0.03 | 91 | 1017.9 |
| 20260905154603 | 7 | 215 | 0.0 | 0.0 | 0.00 | 0.33 | 0.03 | 91 | 1018.0 |
| 20260905154103 | 6 | 215 | 0.0 | 0.0 | 0.00 | 0.33 | 0.03 | 92 | 1018.0 |
| 20260905153603 | 6 | 215 | 0.0 | 0.0 | 0.00 | 0.33 | 0.03 | 92 | 1018.0 |
| 20260905153103 | 6 | 215 | 0.0 | 0.0 | 0.00 | 0.33 | 0.03 | 92 | 1017.9 |
| 20260905152603 | 6 | 215 | 0.0 | 0.0 | 0.00 | 0.33 | 0.03 | 92 | 1018.1 |
| 20260905151603 | 6 | 215 | 0.0 | 0.0 | 0.00 | 0.33 | 0.03 | 92 | 1018.2 |
| 20260905151103 | 6 | 219 | 0.0 | 0.0 | 0.00 | 0.33 | 0.03 | 92 | 1018.2 |
| 20260905150603 | 6 | 220 | 0.0 | 0.0 | 0.00 | 0.33 | 0.03 | 92 | 1018.1 |
| 20260905145603 | 6 | 220 | 0.0 | 0.0 | 0.00 | 0.33 | 0.03 | 93 | 1018.2 |
| 20260905145102 | 6 | 220 | 0.0 | 1.6 | 0.00 | 0.33 | 0.03 | 93 | 1018.1 |
| 20260905144603 | 6 | 224 | 0.0 | 0.0 | 0.00 | 0.33 | 0.03 | 93 | 1018.1 |
| 20260905144103 | 6 | 225 | 0.0 | 1.6 | 0.00 | 0.33 | 0.03 | 93 | 1018.2 |
| 20260905143603 | 5 | 223 | 0.0 | 0.0 | 0.00 | 0.33 | 0.03 | 93 | 1018.1 |
| 20260905143102 | 5 | 219 | 0.0 | 4.8 | 0.00 | 0.33 | 0.03 | 93 | 1018.0 |
| 20260905142603 | 5 | 190 | 0.0 | 0.0 | 0.00 | 0.33 | 0.03 | 94 | 1017.9 |
| 20260905142103 | 5 | 190 | 0.0 | 0.0 | 0.00 | 0.33 | 0.03 | 93 | 1017.8 |
| 20260905141603 | 5 | 189 | 0.0 | 0.0 | 0.00 | 0.33 | 0.03 | 93 | 1017.7 |
| 20260905141103 | 5 | 189 | 0.0 | 0.0 | 0.00 | 0.33 | 0.03 | 93 | 1017.7 |
| 20260905140603 | 5 | 192 | 0.0 | 1.6 | 0.00 | 0.33 | 0.03 | 93 | 1017.6 |
| 20260905135603 | 5 | 190 | 0.0 | 0.0 | 0.00 | 0.33 | 0.03 | 94 | 1017.6 |
| 20260905135103 | 5 | 200 | 0.0 | 1.6 | 0.00 | 0.33 | 0.03 | 94 | 1017.6 |
| 20260905134603 | 5 | 206 | 0.0 | 0.0 | 0.00 | 0.33 | 0.03 | 94 | 1017.5 |
| 20260905134103 | 5 | 206 | 0.0 | 0.0 | 0.00 | 0.33 | 0.03 | 94 | 1017.5 |
| 20260905133603 | 5 | 206 | 0.0 | 0.0 | 0.00 | 0.33 | 0.03 | 93 | 1017.4 |
| 20260905133103 | 5 | 206 | 0.0 | 0.0 | 0.00 | 0.33 | 0.03 | 93 | 1017.4 |
| 20260905132603 | 6 | 206 | 0.0 | 0.0 | 0.00 | 0.33 | 0.03 | 93 | 1017.4 |
| 20260905132103 | 6 | 206 | 0.0 | 0.0 | 0.00 | 0.33 | 0.03 | 93 | 1017.4 |
| 20260905131103 | 6 | 206 | 0.0 | 0.0 | 0.00 | 0.33 | 0.03 | 93 | 1017.5 |
| 20260905130603 | 6 | 206 | 0.0 | 1.6 | 0.00 | 0.33 | 0.03 | 93 | 1017.4 |
| 20260905125603 | 6 | 207 | 0.0 | 4.8 | 0.00 | 0.33 | 0.03 | 93 | 1017.4 |
| 20260905125102 | 6 | 214 | 0.0 | 3.2 | 0.00 | 0.33 | 0.03 | 93 | 1017.4 |
| 20260905124603 | 6 | 241 | 0.0 | 0.0 | 0.00 | 0.33 | 0.03 | 94 | 1017.3 |
| 20260905123603 | 6 | 178 | 0.0 | 0.0 | 0.00 | 0.33 | 0.03 | 94 | 1017.4 |
| 20260905123103 | 6 | 177 | 0.0 | 0.0 | 0.00 | 0.33 | 0.03 | 94 | 1017.4 |
| 20260905122103 | 6 | 177 | 0.0 | 1.6 | 0.00 | 0.33 | 0.03 | 94 | 1017.5 |
| 20260905121603 | 6 | 177 | 0.0 | 1.6 | 0.00 | 0.33 | 0.03 | 94 | 1017.5 |
| 20260905120603 | 6 | 181 | 0.0 | 0.0 | 0.00 | 0.33 | 0.03 | 94 | 1017.5 |
| 20260905120103 | 6 | 181 | 0.0 | 0.0 | 0.00 | 0.33 | 0.03 | 94 | 1017.5 |
| 20260905115103 | 6 | 181 | 0.0 | 0.0 | 0.00 | 0.33 | 0.03 | 94 | 1017.5 |
| 20260905114603 | 6 | 181 | 0.0 | 0.0 | 0.00 | 0.33 | 0.03 | 94 | 1017.5 |
| 20260905113604 | 6 | 181 | 0.0 | 0.0 | 0.00 | 0.33 | 0.03 | 94 | 1017.4 |
| 20260905113103 | 6 | 181 | 0.0 | 0.0 | 0.00 | 0.33 | 0.03 | 94 | 1017.4 |
| 20260905112603 | 6 | 181 | 0.0 | 0.0 | 0.00 | 0.33 | 0.03 | 94 | 1017.3 |
| 20260905112103 | 6 | 181 | 0.0 | 0.0 | 0.00 | 0.33 | 0.03 | 94 | 1017.4 |
| 20260905111103 | 6 | 181 | 0.0 | 0.0 | 0.00 | 0.33 | 0.03 | 94 | 1017.5 |
| 20260905110602 | 6 | 181 | 0.0 | 1.6 | 0.00 | 0.33 | 0.03 | 94 | 1017.4 |
| 20260905105602 | 6 | 181 | 0.0 | 3.2 | 0.00 | 0.33 | 0.03 | 94 | 1017.6 |
| 20260905105103 | 6 | 188 | 0.0 | 0.0 | 0.00 | 0.33 | 0.03 | 94 | 1017.6 |
| 20260905104603 | 6 | 188 | 0.0 | 0.0 | 0.00 | 0.33 | 0.03 | 94 | 1017.6 |
| 20260905104103 | 6 | 188 | 0.0 | 0.0 | 0.00 | 0.33 | 0.03 | 94 | 1017.6 |
| 20260905103603 | 5 | 188 | 0.0 | 1.6 | 0.00 | 0.33 | 0.03 | 94 | 1017.6 |
| 20260905103103 | 6 | 246 | 0.0 | 0.0 | 0.00 | 0.33 | 0.03 | 94 | 1017.6 |
| 20260905102102 | 6 | 234 | 0.0 | 0.0 | 0.00 | 0.33 | 0.03 | 94 | 1017.5 |
| 20260905101603 | 6 | 235 | 0.0 | 0.0 | 0.00 | 0.33 | 0.03 | 94 | 1017.4 |
| 20260905101103 | 6 | 235 | 0.0 | 0.0 | 0.00 | 0.33 | 0.03 | 94 | 1017.5 |
| 20260905100603 | 6 | 235 | 0.0 | 0.0 | 0.00 | 0.33 | 0.03 | 95 | 1017.5 |
| 20260905100104 | 6 | 235 | 0.0 | 0.0 | 0.00 | 0.33 | 0.03 | 95 | 1017.5 |
| 20260905095603 | 6 | 235 | 0.0 | 0.0 | 0.00 | 0.33 | 0.03 | 95 | 1017.6 |
| 20260905094603 | 6 | 235 | 0.0 | 0.0 | 0.03 | 0.33 | 0.03 | 95 | 1017.5 |
| 20260905094103 | 6 | 243 | 0.0 | 0.0 | 0.03 | 0.33 | 0.03 | 95 | 1017.5 |
| 20260905093603 | 5 | 243 | 0.0 | 0.0 | 0.03 | 0.33 | 0.03 | 95 | 1017.5 |
| 20260905093103 | 5 | 243 | 0.0 | 1.6 | 0.03 | 0.33 | 0.03 | 95 | 1017.5 |
| 20260905092603 | 5 | 251 | 0.0 | 0.0 | 0.03 | 0.33 | 0.03 | 95 | 1017.5 |
| 20260905092103 | 5 | 251 | 0.0 | 4.8 | 0.03 | 0.33 | 0.03 | 95 | 1017.4 |
| 20260905091603 | 5 | 279 | 0.0 | 0.0 | 0.03 | 0.33 | 0.03 | 95 | 1017.4 |
| 20260905090603 | 5 | 281 | 0.0 | 1.6 | 0.03 | 0.33 | 0.03 | 95 | 1017.3 |
| 20260905090103 | 5 | 281 | 0.0 | 0.0 | 0.03 | 0.33 | 0.03 | 95 | 1017.3 |
| 20260905085103 | 5 | 289 | 0.0 | 4.8 | 0.00 | 0.30 | 0.00 | 95 | 1017.2 |
| 20260905084603 | 5 | 315 | 0.0 | 4.8 | 0.00 | 0.30 | 0.00 | 94 | 1017.1 |
| 20260905084103 | 5 | 315 | 0.0 | 0.0 | 0.00 | 0.30 | 0.00 | 94 | 1017.1 |
| 20260905083103 | 5 | 315 | 0.0 | 0.0 | 0.00 | 0.30 | 0.00 | 95 | 1017.2 |
| 20260905082603 | 5 | 315 | 0.0 | 0.0 | 0.00 | 0.30 | 0.00 | 95 | 1017.2 |
| 20260905082103 | 5 | 315 | 0.0 | 0.0 | 0.00 | 0.30 | 0.00 | 95 | 1017.0 |
| 20260905081603 | 5 | 315 | 0.0 | 0.0 | 0.00 | 0.30 | 0.00 | 95 | 1017.1 |
| 20260905080602 | 5 | 315 | 0.0 | 0.0 | 0.00 | 0.30 | 0.00 | 94 | 1016.9 |
| 20260905075603 | 5 | 315 | 0.0 | 0.0 | 0.00 | 0.30 | 0.00 | 94 | 1016.9 |
| 20260905074603 | 5 | 315 | 0.0 | 0.0 | 0.00 | 0.30 | 0.00 | 94 | 1016.9 |
| 20260905073603 | 5 | 315 | 0.0 | 0.0 | 0.00 | 0.30 | 0.00 | 94 | 1016.8 |
| 20260905073103 | 5 | 315 | 0.0 | 0.0 | 0.00 | 0.30 | 0.00 | 94 | 1016.6 |
| 20260905072603 | 5 | 315 | 0.0 | 0.0 | 0.00 | 0.30 | 0.00 | 94 | 1016.5 |
| 20260905072102 | 5 | 315 | 0.0 | 0.0 | 0.00 | 0.30 | 0.00 | 94 | 1016.5 |
| 20260905071603 | 5 | 315 | 0.0 | 0.0 | 0.00 | 0.30 | 0.00 | 94 | 1016.5 |
| 20260905071103 | 5 | 315 | 0.0 | 0.0 | 0.00 | 0.30 | 0.00 | 94 | 1016.4 |
| 20260905070603 | 5 | 315 | 0.0 | 0.0 | 0.00 | 0.30 | 0.00 | 94 | 1016.3 |
| 20260905070104 | 5 | 315 | 0.0 | 0.0 | 0.00 | 0.30 | 0.00 | 94 | 1016.4 |
| 20260905065603 | 5 | 315 | 0.0 | 0.0 | 0.00 | 0.30 | 0.30 | 94 | 1016.4 |
| 20260905065104 | 6 | 315 | 0.0 | 0.0 | 0.00 | 0.30 | 0.30 | 94 | 1016.4 |
| 20260905064603 | 6 | 315 | 0.0 | 0.0 | 0.00 | 0.30 | 0.30 | 94 | 1016.3 |
| 20260905064103 | 6 | 315 | 0.0 | 0.0 | 0.00 | 0.30 | 0.30 | 94 | 1016.0 |
| 20260905063603 | 6 | 315 | 0.0 | 0.0 | 0.00 | 0.30 | 0.30 | 94 | 1016.0 |
| 20260905063103 | 6 | 315 | 0.0 | 0.0 | 0.00 | 0.30 | 0.30 | 94 | 1016.1 |
| 20260905062603 | 6 | 315 | 0.0 | 0.0 | 0.00 | 0.30 | 0.30 | 94 | 1016.0 |
| 20260905061604 | 6 | 315 | 0.0 | 0.0 | 0.00 | 0.30 | 0.30 | 94 | 1016.0 |
| 20260905060103 | 7 | 315 | 0.0 | 0.0 | 0.00 | 0.30 | 0.30 | 94 | 1016.0 |
| 20260905055603 | 7 | 315 | 0.0 | 0.0 | 0.00 | 0.30 | 0.30 | 94 | 1015.9 |
| 20260905055103 | 7 | 315 | 0.0 | 0.0 | 0.00 | 0.30 | 0.30 | 94 | 1016.0 |
| 20260905054603 | 7 | 315 | 0.0 | 0.0 | 0.00 | 0.30 | 0.30 | 94 | 1016.0 |
| 20260905054103 | 7 | 315 | 0.0 | 0.0 | 0.00 | 0.30 | 0.30 | 94 | 1016.0 |
| 20260905053603 | 7 | 315 | 0.0 | 0.0 | 0.00 | 0.30 | 0.30 | 94 | 1016.1 |
| 20260905053102 | 7 | 315 | 0.0 | 0.0 | 0.00 | 0.30 | 0.30 | 94 | 1016.2 |
| 20260905052103 | 7 | 315 | 0.0 | 0.0 | 0.00 | 0.30 | 0.30 | 94 | 1016.2 |
| 20260905051603 | 7 | 315 | 0.0 | 0.0 | 0.00 | 0.30 | 0.30 | 94 | 1016.2 |
| 20260905051103 | 7 | 315 | 0.0 | 0.0 | 0.00 | 0.30 | 0.30 | 94 | 1016.1 |
| 20260905050603 | 7 | 315 | 0.0 | 0.0 | 0.00 | 0.30 | 0.30 | 93 | 1016.0 |
| 20260905050103 | 7 | 315 | 0.0 | 0.0 | 0.00 | 0.30 | 0.30 | 93 | 1015.9 |
| 20260905045603 | 7 | 315 | 0.0 | 0.0 | 0.00 | 0.30 | 0.30 | 93 | 1015.9 |
| 20260905045103 | 7 | 315 | 0.0 | 0.0 | 0.00 | 0.30 | 0.30 | 93 | 1015.8 |
| 20260905044603 | 7 | 315 | 0.0 | 0.0 | 0.00 | 0.30 | 0.30 | 93 | 1015.8 |
| 20260905043603 | 7 | 315 | 0.0 | 0.0 | 0.00 | 0.30 | 0.30 | 93 | 1015.9 |
| 20260905043103 | 8 | 315 | 0.0 | 0.0 | 0.00 | 0.30 | 0.30 | 93 | 1015.9 |
| 20260905042603 | 8 | 315 | 0.0 | 0.0 | 0.00 | 0.30 | 0.30 | 93 | 1016.0 |
| 20260905042103 | 8 | 315 | 0.0 | 0.0 | 0.00 | 0.30 | 0.30 | 92 | 1015.9 |
| 20260905041604 | 8 | 315 | 0.0 | 0.0 | 0.00 | 0.30 | 0.30 | 92 | 1015.9 |
| 20260905040602 | 8 | 315 | 0.0 | 0.0 | 0.03 | 0.30 | 0.30 | 92 | 1015.9 |
| 20260905040104 | 8 | 315 | 0.0 | 0.0 | 0.03 | 0.30 | 0.30 | 92 | 1015.9 |
| 20260905035603 | 8 | 315 | 0.0 | 0.0 | 0.05 | 0.30 | 0.30 | 92 | 1015.9 |
| 20260905035104 | 9 | 315 | 0.0 | 0.0 | 0.05 | 0.30 | 0.30 | 92 | 1016.0 |
| 20260905034603 | 9 | 315 | 0.0 | 0.0 | 0.08 | 0.30 | 0.30 | 91 | 1016.1 |
| 20260905034103 | 9 | 315 | 0.0 | 0.0 | 0.08 | 0.30 | 0.30 | 91 | 1016.0 |
| 20260905033603 | 9 | 315 | 0.0 | 0.0 | 0.10 | 0.30 | 0.30 | 91 | 1016.0 |
| 20260905032603 | 9 | 315 | 0.0 | 0.0 | 0.18 | 0.30 | 0.30 | 91 | 1015.8 |
| 20260905032103 | 9 | 315 | 0.0 | 0.0 | 0.18 | 0.30 | 0.30 | 91 | 1015.6 |
| 20260905031603 | 9 | 315 | 0.0 | 0.0 | 0.18 | 0.30 | 0.30 | 91 | 1015.4 |
| 20260905031104 | 9 | 315 | 0.0 | 0.0 | 0.15 | 0.28 | 0.28 | 91 | 1015.4 |
| 20260905030604 | 9 | 315 | 0.0 | 0.0 | 0.15 | 0.28 | 0.28 | 91 | 1015.4 |
| 20260905030104 | 9 | 315 | 0.0 | 0.0 | 0.15 | 0.28 | 0.28 | 91 | 1015.5 |
| 20260905025604 | 9 | 315 | 0.0 | 0.0 | 0.13 | 0.25 | 0.25 | 90 | 1015.4 |
| 20260905025103 | 9 | 315 | 0.0 | 0.0 | 0.13 | 0.25 | 0.25 | 90 | 1015.4 |
| 20260905024603 | 10 | 315 | 0.0 | 0.0 | 0.10 | 0.23 | 0.23 | 90 | 1015.5 |
| 20260905024103 | 10 | 315 | 0.0 | 0.0 | 0.10 | 0.23 | 0.23 | 89 | 1015.5 |
| 20260905023603 | 10 | 315 | 0.0 | 0.0 | 0.08 | 0.20 | 0.20 | 89 | 1015.4 |
| 20260905022103 | 10 | 315 | 0.0 | 0.0 | 0.00 | 0.13 | 0.13 | 85 | 1015.3 |
| 20260905021603 | 10 | 315 | 0.0 | 0.0 | 0.00 | 0.13 | 0.13 | 85 | 1015.1 |
| 20260905021103 | 10 | 315 | 0.0 | 0.0 | 0.00 | 0.13 | 0.13 | 85 | 1014.9 |
| 20260905020604 | 10 | 315 | 0.0 | 0.0 | 0.00 | 0.13 | 0.13 | 82 | 1014.9 |
| 20260905020105 | 10 | 315 | 0.0 | 0.0 | 0.00 | 0.13 | 0.13 | 82 | 1014.8 |
| 20260905015603 | 11 | 315 | 0.0 | 4.8 | 0.00 | 0.13 | 0.13 | 81 | 1014.8 |
| 20260905015103 | 11 | 337 | 0.0 | 0.0 | 0.00 | 0.13 | 0.13 | 81 | 1014.8 |
| 20260905014603 | 11 | 337 | 0.0 | 4.8 | 0.00 | 0.13 | 0.13 | 81 | 1014.8 |
| 20260905014103 | 11 | 336 | 0.0 | 1.6 | 0.00 | 0.13 | 0.13 | 80 | 1014.7 |
| 20260905013603 | 11 | 342 | 0.0 | 3.2 | 0.00 | 0.13 | 0.13 | 79 | 1014.6 |
| 20260905012603 | 11 | 342 | 0.0 | 0.0 | 0.00 | 0.13 | 0.13 | 77 | 1014.6 |
| 20260905012103 | 11 | 342 | 0.0 | 0.0 | 0.00 | 0.13 | 0.13 | 76 | 1014.4 |
| 20260905011603 | 11 | 342 | 0.0 | 0.0 | 0.00 | 0.13 | 0.13 | 76 | 1014.4 |
| 20260905011103 | 11 | 342 | 0.0 | 0.0 | 0.00 | 0.13 | 0.13 | 74 | 1014.3 |
| 20260905010603 | 11 | 342 | 0.0 | 1.6 | 0.00 | 0.13 | 0.13 | 74 | 1014.2 |
| 20260905010103 | 11 | 62 | 0.0 | 3.2 | 0.00 | 0.13 | 0.13 | 75 | 1014.1 |
| 20260905005603 | 11 | 99 | 0.0 | 1.6 | 0.00 | 0.13 | 0.13 | 74 | 1014.1 |
| 20260905005104 | 11 | 101 | 0.0 | 4.8 | 0.00 | 0.13 | 0.13 | 73 | 1014.2 |
| 20260905004604 | 12 | 78 | 1.6 | 4.8 | 0.00 | 0.13 | 0.13 | 73 | 1014.1 |
| 20260905004103 | 12 | 84 | 0.0 | 4.8 | 0.00 | 0.13 | 0.13 | 71 | 1013.9 |
| 20260905003603 | 12 | 82 | 0.0 | 0.0 | 0.00 | 0.13 | 0.13 | 68 | 1013.8 |
| 20260905003103 | 13 | 82 | 0.0 | 4.8 | 0.00 | 0.13 | 0.13 | 63 | 1013.8 |
| 20260905002603 | 13 | 153 | 0.0 | 0.0 | 0.00 | 0.13 | 0.13 | 59 | 1013.7 |
| 20260905002103 | 13 | 153 | 0.0 | 0.0 | 0.00 | 0.13 | 0.13 | 58 | 1013.5 |
| 20260905001604 | 14 | 149 | 0.0 | 1.6 | 0.00 | 0.13 | 0.13 | 57 | 1013.3 |
| 20260905001104 | 14 | 148 | 0.0 | 0.0 | 0.00 | 0.13 | 0.13 | 55 | 1013.3 |
| 20260905000603 | 14 | 146 | 0.0 | 0.0 | 0.00 | 0.13 | 0.13 | 58 | 1013.3 |
| 20260905000104 | 15 | 144 | 0.0 | 3.2 | 0.00 | 0.13 | 0.13 | 55 | 1013.4 |
| 20260904235604 | 15 | 241 | 0.0 | 4.8 | 0.00 | 0.13 | 0.13 | 56 | 1013.4 |
| 20260904235103 | 15 | 237 | 1.6 | 4.8 | 0.00 | 0.13 | 0.13 | 57 | 1013.4 |
| 20260904234603 | 15 | 158 | 0.0 | 3.2 | 0.00 | 0.13 | 0.13 | 58 | 1013.3 |
| 20260904234103 | 15 | 136 | 0.0 | 3.2 | 0.00 | 0.13 | 0.13 | 62 | 1013.3 |
| 20260904233603 | 14 | 141 | 3.2 | 14.5 | 0.00 | 0.13 | 0.13 | 61 | 1013.3 |
| 20260904233103 | 14 | 229 | 0.0 | 3.2 | 0.00 | 0.13 | 0.13 | 64 | 1013.2 |
| 20260904232604 | 13 | 170 | 0.0 | 1.6 | 0.00 | 0.13 | 0.13 | 65 | 1013.2 |
| 20260904232103 | 13 | 170 | 0.0 | 4.8 | 0.00 | 0.13 | 0.13 | 65 | 1013.2 |
| 20260904231604 | 14 | 187 | 1.6 | 4.8 | 0.00 | 0.13 | 0.13 | 64 | 1013.3 |
| 20260904231103 | 14 | 193 | 0.0 | 1.6 | 0.00 | 0.13 | 0.13 | 64 | 1013.2 |
| 20260904230104 | 13 | 200 | 0.0 | 0.0 | 0.05 | 0.13 | 0.13 | 71 | 1013.1 |
| 20260904225604 | 13 | 200 | 0.0 | 0.0 | 0.10 | 0.13 | 0.13 | 68 | 1013.1 |
| 20260904225103 | 13 | 200 | 0.0 | 0.0 | 0.10 | 0.13 | 0.13 | 72 | 1013.1 |
| 20260904224603 | 12 | 200 | 0.0 | 3.2 | 0.13 | 0.13 | 0.13 | 72 | 1013.1 |
| 20260904223603 | 12 | 204 | 0.0 | 4.8 | 0.13 | 0.13 | 0.13 | 70 | 1013.1 |
| 20260904223103 | 12 | 237 | 0.0 | 0.0 | 0.13 | 0.13 | 0.13 | 79 | 1013.2 |
| 20260904222603 | 12 | 238 | 0.0 | 3.2 | 0.13 | 0.13 | 0.13 | 79 | 1013.1 |
| 20260904222103 | 11 | 236 | 0.0 | 4.8 | 0.13 | 0.13 | 0.13 | 79 | 1013.2 |
| 20260904221603 | 10 | 237 | 0.0 | 0.0 | 0.13 | 0.13 | 0.13 | 87 | 1013.3 |
| 20260904221103 | 9 | 237 | 0.0 | 0.0 | 0.13 | 0.13 | 0.13 | 82 | 1013.3 |
| 20260904220603 | 9 | 234 | 0.0 | 0.0 | 0.10 | 0.10 | 0.10 | 82 | 1013.7 |
| 20260904220104 | 10 | 194 | 0.0 | 4.8 | 0.08 | 0.08 | 0.08 | 82 | 1014.2 |
| 20260904215603 | 10 | 139 | 1.6 | 4.8 | 0.03 | 0.03 | 0.03 | 76 | 1014.4 |
| 20260904215103 | 11 | 225 | 4.8 | 19.3 | 0.03 | 0.03 | 0.03 | 71 | 1014.0 |
| 20260904214604 | 12 | 242 | 1.6 | 16.1 | 0.00 | 0.00 | 0.00 | 62 | 1013.7 |
| 20260904214103 | 13 | 188 | 0.0 | 4.8 | 0.00 | 0.00 | 0.00 | 59 | 1013.3 |
| 20260904213603 | 13 | 150 | 0.0 | 1.6 | 0.00 | 0.00 | 0.00 | 58 | 1013.2 |
| 20260904212603 | 14 | 178 | 0.0 | 4.8 | 0.00 | 0.00 | 0.00 | 51 | 1012.8 |
| 20260904211603 | 15 | 206 | 0.0 | 1.6 | 0.00 | 0.00 | 0.00 | 50 | 1012.8 |
| 20260904210603 | 15 | 241 | 0.0 | 4.8 | 0.00 | 0.00 | 0.00 | 51 | 1012.7 |
| 20260904210103 | 15 | 137 | 0.0 | 3.2 | 0.00 | 0.00 | 0.00 | 50 | 1012.8 |
| 20260904205603 | 15 | 139 | 0.0 | 4.8 | 0.00 | 0.00 | 0.00 | 49 | 1012.7 |
| 20260904204603 | 16 | 127 | 0.0 | 4.8 | 0.00 | 0.00 | 0.00 | 51 | 1012.8 |
| 20260904203605 | 15 | 138 | 0.0 | 4.8 | 0.00 | 0.00 | 0.00 | 54 | 1012.7 |
| 20260904203103 | 15 | 151 | 0.0 | 4.8 | 0.00 | 0.00 | 0.00 | 54 | 1012.8 |
| 20260904202603 | 15 | 91 | 0.0 | 4.8 | 0.00 | 0.00 | 0.00 | 55 | 1012.9 |
| 20260904202104 | 14 | 202 | 0.0 | 1.6 | 0.00 | 0.00 | 0.00 | 55 | 1013.0 |
| 20260904201603 | 13 | 251 | 1.6 | 9.7 | 0.00 | 0.00 | 0.00 | 55 | 1013.0 |
| 20260904201103 | 13 | 176 | 0.0 | 1.6 | 0.00 | 0.00 | 0.00 | 58 | 1013.1 |
| 20260904200603 | 13 | 175 | 1.6 | 8.0 | 0.00 | 0.00 | 0.00 | 58 | 1013.0 |
| 20260904200104 | 12 | 87 | 0.0 | 4.8 | 0.00 | 0.00 | 0.00 | 57 | 1013.1 |
| 20260904195603 | 13 | 133 | 0.0 | 9.7 | 0.00 | 0.00 | 0.00 | 56 | 1013.2 |
| 20260904194604 | 12 | 130 | 0.0 | 0.0 | 0.00 | 0.00 | 0.00 | 62 | 1013.4 |
| 20260904194103 | 12 | 123 | 0.0 | 0.0 | 0.00 | 0.00 | 0.00 | 62 | 1013.5 |
| 20260904193603 | 12 | 170 | 0.0 | 1.6 | 0.00 | 0.00 | 0.00 | 61 | 1013.7 |
| 20260904192603 | 12 | 89 | 0.0 | 1.6 | 0.00 | 0.00 | 0.00 | 61 | 1013.7 |
| 20260904192104 | 11 | 209 | 0.0 | 4.8 | 0.00 | 0.00 | 0.00 | 62 | 1013.8 |
| 20260904191603 | 11 | 233 | 0.0 | 4.8 | 0.00 | 0.00 | 0.00 | 63 | 1013.9 |
| 20260904191103 | 11 | 163 | 1.6 | 8.0 | 0.00 | 0.00 | 0.00 | 63 | 1014.0 |
| 20260904190603 | 11 | 138 | 0.0 | 4.8 | 0.00 | 0.00 | 0.00 | 63 | 1014.0 |
| 20260904190104 | 11 | 199 | 0.0 | 4.8 | 0.00 | 0.00 | 0.00 | 65 | 1014.0 |
| 20260904185103 | 10 | 204 | 0.0 | 4.8 | 0.00 | 0.00 | 0.00 | 65 | 1014.2 |